• In Belarus
  • List of Countries
  • For 7 days
  • Water Temperature
  • Satellite Maps
  • Weather Map
  • Weather Widgets
  • user-avatar
    Login

    Hourly Weather Yulara

    Today, 13 December, Wednesday

    Time Temperature Precipitation Wind Pressure Humidity
    00:00 +35°C° 0 mm 3 mps 715 mmHg 21%
    01:00 +34°C° 0 mm 3 mps 714 mmHg 23%
    02:00 +32°C° 0 mm 2 mps 714 mmHg 24%
    03:00 +31°C° 0 mm 2 mps 714 mmHg 27%
    04:00 +31°C° 0 mm 2 mps 714 mmHg 28%
    05:00 +31°C° 0 mm 2 mps 714 mmHg 29%
    06:00 +31°C° 0 mm 1 mps 714 mmHg 30%
    07:00 +33°C° 0 mm 1 mps 714 mmHg 27%
    08:00 +36°C° 0 mm 2 mps 715 mmHg 23%
    09:00 +36°C° 0 mm 1 mps 715 mmHg 21%
    10:00 +38°C° 0 mm 2 mps 715 mmHg 20%
    11:00 +40°C° 0 mm 3 mps 715 mmHg 18%
    12:00 +42°C° 0 mm 4 mps 715 mmHg 17%
    13:00 +42°C° 0 mm 4 mps 714 mmHg 17%
    14:00 +42°C° 0 mm 5 mps 714 mmHg 17%
    15:00 +42°C° 0 mm 5 mps 713 mmHg 16%
    16:00 +42°C° 0 mm 5 mps 713 mmHg 16%
    17:00 +41°C° 0 mm 4 mps 713 mmHg 16%
    18:00 +41°C° 0 mm 4 mps 713 mmHg 16%
    19:00 +40°C° 0.1 mm 5 mps 713 mmHg 19%
    20:00 +37°C° 0.1 mm 5 mps 713 mmHg 22%
    21:00 +36°C° 0.1 mm 6 mps 713 mmHg 26%
    22:00 +34°C° 0.2 mm 6 mps 713 mmHg 29%
    23:00 +33°C° 0.2 mm 7 mps 713 mmHg 33%

    Tomorrow, 14 December, Thursday

    Time Temperature Precipitation Wind Pressure Humidity
    00:00 +32°C° 0.2 mm 7 mps 713 mmHg 37%
    01:00 +32°C° 0.5 mm 7 mps 713 mmHg 38%
    02:00 +30°C° 0.5 mm 7 mps 714 mmHg 39%
    03:00 +30°C° 0.5 mm 7 mps 714 mmHg 40%
    04:00 +30°C° 0.4 mm 6 mps 714 mmHg 44%
    05:00 +29°C° 0.4 mm 6 mps 714 mmHg 48%
    06:00 +28°C° 0.4 mm 6 mps 715 mmHg 53%
    07:00 +30°C° 0.1 mm 6 mps 715 mmHg 48%
    08:00 +32°C° 0.1 mm 5 mps 715 mmHg 44%
    09:00 +34°C° 0.1 mm 5 mps 716 mmHg 40%
    10:00 +35°C° 0 mm 4 mps 715 mmHg 36%
    11:00 +36°C° 0 mm 4 mps 715 mmHg 32%
    12:00 +38°C° 0 mm 3 mps 715 mmHg 29%
    13:00 +38°C° 0 mm 4 mps 714 mmHg 27%
    14:00 +38°C° 0 mm 4 mps 714 mmHg 25%
    15:00 +40°C° 0 mm 4 mps 713 mmHg 24%
    16:00 +39°C° 0.1 mm 5 mps 713 mmHg 24%
    17:00 +39°C° 0.1 mm 5 mps 714 mmHg 24%
    18:00 +39°C° 0.1 mm 6 mps 714 mmHg 24%
    19:00 +38°C° 0 mm 6 mps 714 mmHg 26%
    20:00 +36°C° 0 mm 6 mps 714 mmHg 28%
    21:00 +35°C° 0 mm 6 mps 715 mmHg 29%
    22:00 +34°C° 0 mm 6 mps 715 mmHg 31%
    23:00 +34°C° 0 mm 6 mps 715 mmHg 32%

    Day after tomorrow, 15 December, Friday

    Time Temperature Precipitation Wind Pressure Humidity
    00:00 +33°C° 0 mm 6 mps 715 mmHg 33%
    01:00 +32°C° 0 mm 6 mps 715 mmHg 34%
    02:00 +32°C° 0 mm 6 mps 714 mmHg 35%
    03:00 +30°C° 0 mm 6 mps 714 mmHg 36%
    04:00 +29°C° 0 mm 6 mps 715 mmHg 36%
    05:00 +29°C° 0 mm 6 mps 715 mmHg 36%
    06:00 +28°C° 0 mm 6 mps 715 mmHg 36%
    07:00 +30°C° 0 mm 6 mps 716 mmHg 34%
    08:00 +32°C° 0 mm 7 mps 716 mmHg 32%
    09:00 +33°C° 0 mm 7 mps 716 mmHg 30%
    10:00 +34°C° 0 mm 6 mps 716 mmHg 29%
    11:00 +35°C° 0 mm 5 mps 716 mmHg 28%
    12:00 +36°C° 0 mm 5 mps 715 mmHg 26%
    13:00 +37°C° 0 mm 4 mps 715 mmHg 25%
    14:00 +38°C° 0 mm 3 mps 714 mmHg 23%
    15:00 +39°C° 0 mm 2 mps 713 mmHg 21%
    16:00 +39°C° 0 mm 3 mps 713 mmHg 21%
    17:00 +39°C° 0 mm 3 mps 714 mmHg 21%
    18:00 +39°C° 0 mm 3 mps 714 mmHg 21%
    19:00 +38°C° 0 mm 3 mps 714 mmHg 22%
    20:00 +37°C° 0 mm 4 mps 714 mmHg 23%
    21:00 +36°C° 0 mm 4 mps 715 mmHg 24%
    22:00 +36°C° 0 mm 4 mps 715 mmHg 26%
    23:00 +35°C° 0 mm 4 mps 714 mmHg 27%

    16 December, Saturday

    Time Temperature Precipitation Wind Pressure Humidity
    00:00 +34°C° 0 mm 5 mps 714 mmHg 29%
    01:00 +33°C° 0 mm 4 mps 714 mmHg 30%
    02:00 +33°C° 0 mm 4 mps 714 mmHg 31%
    03:00 +33°C° 0 mm 4 mps 714 mmHg 32%
    04:00 +32°C° 0 mm 4 mps 715 mmHg 32%
    05:00 +32°C° 0 mm 4 mps 715 mmHg 32%
    06:00 +32°C° 0 mm 4 mps 716 mmHg 31%
    07:00 +34°C° 0 mm 4 mps 716 mmHg 29%
    08:00 +36°C° 0 mm 5 mps 717 mmHg 26%
    09:00 +38°C° 0 mm 6 mps 717 mmHg 23%
    10:00 +39°C° 0 mm 6 mps 717 mmHg 22%
    11:00 +41°C° 0 mm 6 mps 716 mmHg 21%
    12:00 +42°C° 0 mm 5 mps 716 mmHg 19%
    13:00 +42°C° 0 mm 5 mps 715 mmHg 18%
    14:00 +43°C° 0 mm 5 mps 714 mmHg 17%
    15:00 +43°C° 0 mm 4 mps 714 mmHg 16%
    16:00 +43°C° 0 mm 5 mps 714 mmHg 16%
    17:00 +42°C° 0 mm 5 mps 714 mmHg 17%
    18:00 +42°C° 0 mm 5 mps 714 mmHg 17%
    19:00 +41°C° 0 mm 4 mps 714 mmHg 19%
    20:00 +40°C° 0 mm 4 mps 714 mmHg 20%
    21:00 +38°C° 0 mm 3 mps 715 mmHg 21%
    22:00 +37°C° 0 mm 4 mps 714 mmHg 23%
    23:00 +37°C° 0 mm 5 mps 714 mmHg 25%

    17 December, Sunday

    Time Temperature Precipitation Wind Pressure Humidity
    00:00 +36°C° 0 mm 5 mps 714 mmHg 26%
    01:00 +35°C° 0 mm 5 mps 713 mmHg 28%
    02:00 +35°C° 0 mm 5 mps 713 mmHg 30%
    03:00 +34°C° 0 mm 4 mps 713 mmHg 32%
    04:00 +34°C° 0 mm 4 mps 713 mmHg 33%
    05:00 +34°C° 0 mm 4 mps 713 mmHg 34%
    06:00 +33°C° 0 mm 4 mps 714 mmHg 36%
    07:00 +35°C° 0 mm 5 mps 714 mmHg 32%
    08:00 +38°C° 0 mm 6 mps 715 mmHg 28%
    09:00 +40°C° 0 mm 7 mps 715 mmHg 25%
    10:00 +41°C° 0 mm 7 mps 715 mmHg 23%
    11:00 +43°C° 0 mm 7 mps 714 mmHg 20%
    12:00 +44°C° 0 mm 7 mps 714 mmHg 18%
    13:00 +44°C° 0 mm 7 mps 713 mmHg 18%
    14:00 +44°C° 0 mm 8 mps 712 mmHg 18%
    15:00 +44°C° 0 mm 8 mps 712 mmHg 17%
    16:00 +44°C° 0 mm 8 mps 712 mmHg 18%
    17:00 +43°C° 0 mm 7 mps 712 mmHg 19%
    18:00 +43°C° 0 mm 7 mps 712 mmHg 20%
    19:00 +41°C° 0 mm 7 mps 712 mmHg 22%
    20:00 +40°C° 0 mm 6 mps 713 mmHg 23%
    21:00 +39°C° 0 mm 5 mps 713 mmHg 25%
    22:00 +37°C° 0 mm 5 mps 712 mmHg 26%
    23:00 +38°C° 0 mm 6 mps 712 mmHg 28%

    18 December, Monday

    Time Temperature Precipitation Wind Pressure Humidity
    00:00 +36°C° 0 mm 6 mps 712 mmHg 29%
    01:00 +36°C° 0.1 mm 6 mps 712 mmHg 31%
    02:00 +35°C° 0.1 mm 5 mps 711 mmHg 32%
    03:00 +34°C° 0.1 mm 5 mps 711 mmHg 34%
    04:00 +34°C° 0 mm 4 mps 711 mmHg 35%
    05:00 +34°C° 0 mm 4 mps 711 mmHg 36%
    06:00 +33°C° 0 mm 4 mps 711 mmHg 37%
    07:00 +35°C° 0 mm 5 mps 712 mmHg 33%
    08:00 +38°C° 0 mm 7 mps 712 mmHg 29%
    09:00 +40°C° 0 mm 9 mps 712 mmHg 25%
    10:00 +42°C° 0 mm 9 mps 712 mmHg 23%
    11:00 +43°C° 0 mm 9 mps 712 mmHg 21%
    12:00 +45°C° 0 mm 10 mps 711 mmHg 19%
    13:00 +44°C° 0 mm 10 mps 711 mmHg 20%
    14:00 +44°C° 0 mm 10 mps 710 mmHg 21%
    15:00 +43°C° 0 mm 10 mps 710 mmHg 23%
    16:00 +43°C° 0 mm 9 mps 710 mmHg 23%
    17:00 +43°C° 0 mm 8 mps 710 mmHg 24%
    18:00 +41°C° 0 mm 7 mps 710 mmHg 24%
    19:00 +40°C° 0.2 mm 6 mps 711 mmHg 26%
    20:00 +39°C° 0.2 mm 5 mps 711 mmHg 28%
    21:00 +37°C° 0.2 mm 5 mps 712 mmHg 30%
    22:00 +36°C° 0.3 mm 4 mps 712 mmHg 31%
    23:00 +35°C° 0.3 mm 4 mps 712 mmHg 32%
    Show more